Location: Unspecified
(0.0000°N, 0.0000°E)
Time: 19:03:40
(UTC+00:00)

A-11 Canister half - Pass Details

Date: 09 August 2021
Orbit: 1526 x 1683 km, 47.3° (Epoch: 26 September)

Event Time Altitude Azimuth Distance (km) Brightness Sun altitude
Rises 19:55:05 0° 283° (WNW) 4,747 12.9 -26.3°
Reaches altitude 10° 19:59:36 10° 265° (W) 3,738 11.9 -27.4°
Maximum altitude 20:05:18 17° 227° (SW) 3,156 10.9 -28.8°
Drops below altitude 10° 20:11:00 10° 188° (S) 3,697 10.9 -30.1°
Enters shadow 20:13:15 - 178° (S) 4,147 11.1 -30.6°
